Location: Chemnitz
(49.5500°N, 11.5830°E)
Time: 12:26:18
(UTC+02:00)

ISS - Pass Details

Date: 06 January 2018
Orbit: 402 x 408 km, 51.6° (Epoch: 20 July)

Event Time Altitude Azimuth Distance (km) Brightness Sun altitude
Exits shadow 05:27:06 28° 65° (ENE) 815 -1.8 -25.3°
Drops below altitude 10° 05:28:53 10° 74° (ENE) 1,502 -0.1 -25.0°
Enters shadow 06:24:07 -71° 271° (W) 12,456 3.6 -16.2°
Maximum altitude 07:02:25 68° 11° (NNE) 455 -3.7 -10.3°
